This is the latest recevied weather packets stored in our database for station/object M0JUI-1. If no packets are shown the sender has not sent any weather packets the latest 10 day(s).
| Time | Temp. | Humidity | Pressure | Rain* | Wind** | Luminosity | Snow |
|---|---|---|---|---|---|---|---|
| 1787948145 | 15.56° C | 16% | 1006.1 hPa | 0 mm | - | 0 W/m² | - |
| 1787947833 | 15.56° C | 15% | 1006.2 hPa | 0 mm | - | 0 W/m² | - |
| 1787947532 | 15.56° C | 15% | 1005.9 hPa | 0 mm | - | 0 W/m² | - |
| 1787947232 | 16.11° C | 15% | 1005.9 hPa | 0 mm | - | 0 W/m² | - |
| 1787946920 | 16.11° C | 15% | 1005.8 hPa | 0 mm | - | 0 W/m² | - |
| 1787946629 | 16.11° C | 15% | 1006 hPa | 0 mm | - | 0 W/m² | - |
| 1787946320 | 16.11° C | 15% | 1005.8 hPa | 0 mm | - | 0 W/m² | - |
| 1787946008 | 16.11° C | 14% | 1005.7 hPa | 0 mm | - | 0 W/m² | - |
| 1787945708 | 16.11° C | 14% | 1005.6 hPa | 0 mm | - | 0 W/m² | - |
| 1787945409 | 16.11° C | 14% | 1005.7 hPa | 0 mm | - | 0 W/m² | - |
| 1787945096 | 16.11° C | 14% | 1005.5 hPa | 0 mm | - | 0 W/m² | - |
| 1787944796 | 16.11° C | 14% | 1005.7 hPa | 0 mm | - | 0 W/m² | - |
| 1787944496 | 16.11° C | 14% | 1005.6 hPa | 0 mm | - | 0 W/m² | - |
| 1787944197 | 16.11° C | 13% | 1005.5 hPa | 0 mm | - | 0 W/m² | - |
| 1787943896 | 16.11° C | 13% | 1005.5 hPa | 0 mm | - | 2 W/m² | - |
| 1787943596 | 16.11° C | 13% | 1005.3 hPa | 0 mm | - | 3 W/m² | - |
| 1787943297 | 16.11° C | 12% | 1005.5 hPa | 0 mm | - | 5 W/m² | - |
| 1787942996 | 16.11° C | 12% | 1005.3 hPa | 0 mm | - | 6 W/m² | - |
| 1787942696 | 16.67° C | 12% | 1005.2 hPa | 0 mm | - | 10 W/m² | - |
| 1787942397 | 16.67° C | 12% | 1005.1 hPa | 0 mm | - | 12 W/m² | - |
| 1787942096 | 16.67° C | 12% | 1005.1 hPa | 0 mm | - | 14 W/m² | - |
| 1787941797 | 16.67° C | 12% | 1005 hPa | 0 mm | - | 29 W/m² | - |
| 1787941496 | 16.67° C | 12% | 1005 hPa | 0 mm | - | 26 W/m² | - |
| 1787941196 | 16.67° C | 12% | 1004.9 hPa | 0 mm | - | 29 W/m² | - |
| 1787940896 | 16.67° C | 12% | 1005.1 hPa | 0 mm | - | 42 W/m² | - |
* Rain latest hour (hover to see other rain measurements)
** Current wind speed in m/s (hover to see current wind gust speed)